Gore Bay, Ontario

6:15 AM EDT on May 21, 2018 (GMT -0400)
Gore Bay-Manitoulin

Weather History for CYZE - November, 2013

Change the Weather History Date:

Friday, November 15, 2013

  Actual Average Record
Temperature  
Mean Temperature 40 °F -  
Max Temperature 44 °F 35 °F 57 °F (2001)
Min Temperature 35 °F 22 °F 10 °F (1996)
Degree Days  
Heating Degree Days 26    
Moisture  
Dew Point 37 °F    
Average Humidity 83    
Maximum Humidity 100    
Minimum Humidity 71    
Precipitation  
Precipitation 0.00 in 0.10 in - ()
Sea Level Pressure  
Sea Level Pressure 29.90 in    
Wind  
Wind Speed 9 mph ()    
Max Wind Speed 15 mph    
Max Gust Speed -    
Visibility 8.7 miles    
Events      
Averages and records for this station are not official NWS values.
T = Trace of Precipitation, MM = Missing Value Source: Averaged Metar Reports

Daily Weather History Graph

Daily Weather History Graph

Search for Another Location

Airport or City:

Astronomy

Nov. 15, 2013 Rise Set
Actual Time 7:30 AM EST 4:58 PM EST
Civil Twilight 6:58 AM EST 5:31 PM EST
Nautical Twilight 6:22 AM EST 6:07 PM EST
Astronomical Twilight 5:46 AM EST 6:42 PM EST
Moon 3:59 PM EST (11/15) 5:20 AM EST (11/15)
Length of Visible Light 10h 32m
Length of Day
9h 27m
Waxing Gibbous, 96% of the Moon is Illuminated
Nov 15
Waxing Gibbous
Nov 17
Full
Nov 25
Last Quarter
Dec 2
New
Dec 9
First Quarter

Hourly Weather History & Observations

Time (EST) Temp. Windchill Dew Point Humidity Pressure Visibility Wind Dir Wind Speed Gust Speed Precip Events Conditions
12:00 AM 41.0 °F 34.7 °F 35.6 °F 81% 29.86 in 9.0 mi WSW 10.4 mph - N/A   Overcast
1:00 AM 37 °F - 35 °F 91% 29.82 in - WSW 8.1 mph - -  
1:00 AM 41.0 °F 35.2 °F 35.6 °F 81% 29.86 in 9.0 mi WSW 9.2 mph - N/A   Overcast
1:40 AM 41.0 °F 34.7 °F 35.6 °F 81% 29.86 in 9.0 mi SW 10.4 mph - N/A   Overcast
2:00 AM 41.0 °F 35.2 °F 35.6 °F 81% 29.86 in 9.0 mi SW 9.2 mph - N/A   Overcast
3:00 AM 41.0 °F 36.4 °F 35.6 °F 81% 29.87 in 9.0 mi SSW 6.9 mph - N/A   Overcast
4:00 AM 41.0 °F 36.4 °F 37.4 °F 87% 29.86 in 9.0 mi South 6.9 mph - N/A   Overcast
5:00 AM 41.0 °F 35.2 °F 37.4 °F 87% 29.86 in 9.0 mi SSW 9.2 mph - N/A   Overcast
6:00 AM 42.8 °F 36.6 °F 35.6 °F 76% 29.87 in 9.0 mi SSW 11.5 mph - N/A   Overcast
7:00 AM 36 °F - 35 °F 96% 29.86 in - South 10.4 mph - -  
7:00 AM 42.8 °F 37.0 °F 37.4 °F 81% 29.88 in 9.0 mi South 10.4 mph - N/A   Overcast
8:00 AM 42.8 °F 37.5 °F 37.4 °F 81% 29.90 in 9.0 mi SSW 9.2 mph - N/A   Mostly Cloudy
9:00 AM 42.8 °F 36.6 °F 37.4 °F 81% 29.90 in 9.0 mi South 11.5 mph - N/A   Overcast
10:00 AM 44.6 °F 37.8 °F 37.4 °F 76% 29.91 in 9.0 mi SSW 15.0 mph - N/A   Overcast
11:00 AM 44.6 °F 38.4 °F 37.4 °F 76% 29.91 in 9.0 mi SSW 12.7 mph - N/A   Overcast
11:10 AM 44.6 °F 38.1 °F 37.4 °F 76% 29.92 in 9.0 mi SSW 13.8 mph - N/A   Overcast
11:46 AM 44.6 °F 37.8 °F 37.4 °F 76% 29.91 in 9.0 mi SSW 15.0 mph - N/A   Overcast
12:00 PM 46.4 °F 40.4 °F 37.4 °F 71% 29.91 in 9.0 mi SW 13.8 mph - N/A   Mostly Cloudy
1:00 PM 43 °F - 38 °F 74% 29.88 in - SSW 11.5 mph - -  
1:00 PM 46.4 °F 40.7 °F 37.4 °F 71% 29.90 in 9.0 mi SW 12.7 mph - N/A   Clear
2:00 PM 46.4 °F 40.7 °F 37.4 °F 71% 29.91 in 9.0 mi SW 12.7 mph - N/A   Partly Cloudy
3:00 PM 46.4 °F 42.4 °F 37.4 °F 71% 29.90 in 9.0 mi SSW 8.1 mph - N/A   Clear
4:00 PM 44.6 °F 40.7 °F 37.4 °F 76% 29.91 in 9.0 mi South 6.9 mph - N/A   Clear
5:00 PM 41.0 °F 36.4 °F 37.4 °F 87% 29.92 in 9.0 mi South 6.9 mph - N/A   Clear
6:00 PM 41.0 °F 37.1 °F 37.4 °F 87% 29.93 in 9.0 mi SE 5.8 mph - N/A   Clear
7:00 PM 41 °F - 37 °F 80% 29.94 in - South 12.7 mph - -  
7:00 PM 39.2 °F 37.0 °F 37.4 °F 93% 29.94 in 7.0 mi South 3.5 mph - N/A   Clear
7:31 PM 37.4 °F - 37.4 °F 100% 29.94 in 5.0 mi Variable 2.3 mph - N/A   Partly Cloudy
7:36 PM 39.2 °F 33.6 °F 39.2 °F 100% 29.94 in 6.0 mi Variable 8.1 mph - N/A   Partly Cloudy
8:00 PM 41.0 °F 35.2 °F 41.0 °F 100% 29.94 in 9.0 mi SSE 9.2 mph - N/A   Scattered Clouds
9:00 PM 42.8 °F 37.5 °F 39.2 °F 87% 29.95 in 9.0 mi South 9.2 mph - N/A   Partly Cloudy
10:00 PM 41.0 °F 34.7 °F 39.2 °F 93% 29.95 in 9.0 mi SSE 10.4 mph - N/A   Clear
11:00 PM 41.0 °F 39.0 °F 37.4 °F 87% 29.97 in 9.0 mi South 3.5 mph - N/A   Scattered Clouds